CW2071 Weather Reports


time (UTC)temp
C
wind
direction
speed
KPH
gust
KPH
rain 1hr
cm
rain 24hr
cm
rain mn
cm
humidity
%
barometer
mb
20260507093518 7 276 3.2 9.7 0.00 0.00 0.00 77 1011.9
20260507093040 7 210 3.2 9.7 0.00 0.00 0.00 77 1011.7
20260507092557 7 276 3.2 9.7 0.00 0.00 0.00 76 1011.8
20260507092028 7 285 3.2 9.7 0.00 0.00 0.00 77 1011.9
20260507091549 7 300 3.2 9.7 0.00 0.00 0.00 77 1011.9
20260507091024 7 197 3.2 9.7 0.00 0.00 0.00 77 1012.0
20260507090515 7 310 3.2 9.7 0.00 0.00 0.00 77 1012.0
20260507090059 7 246 3.2 12.9 0.00 0.00 0.00 77 1012.0
20260507085554 7 293 3.2 12.9 0.00 0.00 0.00 77 1012.1
20260507085024 7 259 3.2 9.7 0.00 0.00 0.00 77 1012.2
20260507084521 7 264 4.8 9.7 0.00 0.00 0.00 76 1012.1
20260507084103 7 46 4.8 8.0 0.00 0.00 0.00 76 1012.3
20260507083536 7 215 3.2 8.0 0.00 0.00 0.00 76 1012.3
20260507083023 6 303 4.8 8.0 0.00 0.00 0.00 76 1012.5
20260507082519 6 223 3.2 8.0 0.00 0.00 0.00 76 1012.4
20260507082036 6 308 3.2 8.0 0.00 0.00 0.00 76 1012.5
20260507081532 6 289 3.2 8.0 0.00 0.00 0.00 75 1012.6
20260507081025 6 295 3.2 8.0 0.00 0.00 0.00 74 1012.6
20260507080519 6 296 3.2 8.0 0.00 0.00 0.00 74 1012.7
20260507080017 6 234 3.2 9.7 0.00 0.00 0.00 74 1012.7
20260507075539 6 178 4.8 9.7 0.00 0.00 0.00 73 1012.7
20260507075013 6 284 4.8 9.7 0.00 0.00 0.00 73 1012.8
20260507074534 7 288 6.4 9.7 0.00 0.00 0.00 72 1012.9
20260507074052 7 278 6.4 9.7 0.00 0.00 0.00 71 1012.9
20260507073545 7 279 6.4 9.7 0.00 0.00 0.00 71 1013.0
20260507073040 7 291 6.4 9.7 0.00 0.00 0.00 70 1013.1
20260507072552 7 286 6.4 8.0 0.00 0.00 0.00 69 1013.3
20260507072024 7 286 4.8 11.3 0.00 0.00 0.00 68 1013.3
20260507071540 8 276 4.8 12.9 0.00 0.00 0.00 68 1013.4
20260507071034 8 335 3.2 12.9 0.00 0.00 0.00 67 1013.4
20260507070545 8 261 3.2 8.0 0.00 0.00 0.00 67 1013.5
20260507070038 8 308 3.2 8.0 0.00 0.00 0.00 66 1013.5
20260507065553 8 309 3.2 8.0 0.00 0.00 0.00 66 1013.6
20260507065027 8 206 3.2 8.0 0.00 0.00 0.00 67 1013.7
20260507064524 8 290 1.6 6.4 0.00 0.00 0.00 66 1013.7
20260507064021 8 269 1.6 4.8 0.00 0.00 0.00 67 1013.8
20260507063516 8 63 1.6 6.4 0.00 0.00 0.00 66 1013.8
20260507063039 8 321 3.2 6.4 0.00 0.00 0.00 66 1013.8
20260507062532 8 308 1.6 6.4 0.00 0.00 0.00 67 1013.9
20260507062028 8 246 1.6 9.7 0.00 0.00 0.00 67 1013.9
20260507061524 8 314 1.6 9.7 0.00 0.00 0.00 67 1014.0
20260507061020 8 296 1.6 6.4 0.00 0.00 0.00 67 1013.9
20260507060540 8 305 1.6 9.7 0.00 0.00 0.00 66 1013.9
20260507060036 8 269 3.2 9.7 0.00 0.00 0.00 66 1013.9
20260507055530 8 286 3.2 8.0 0.00 0.00 0.00 66 1014.0
20260507055024 8 303 4.8 6.4 0.00 0.00 0.00 65 1014.1
20260507054521 8 303 3.2 9.7 0.00 0.00 0.00 64 1014.1
20260507054016 9 279 3.2 9.7 0.00 0.00 0.00 63 1014.2
20260507053541 9 46 3.2 9.7 0.00 0.00 0.00 63 1014.3
20260507053032 10 20 3.2 6.4 0.00 0.00 0.00 62 1014.2
20260507052527 10 231 1.6 6.4 0.00 0.00 0.00 62 1014.2
20260507052022 9 135 1.6 6.4 0.00 0.00 0.00 62 1014.4
20260507051518 9 283 1.6 8.0 0.00 0.00 0.00 62 1014.3
20260507051104 9 296 1.6 8.0 0.00 0.00 0.00 62 1014.4
20260507050535 8 223 1.6 4.8 0.00 0.00 0.00 63 1014.3
20260507050024 8 234 1.6 6.4 0.00 0.00 0.00 64 1014.4
20260507045513 7 46 1.6 6.4 0.00 0.00 0.00 61 1014.4
20260507045014 7 269 1.6 4.8 0.00 0.00 0.00 59 1014.5
20260507044513 7 290 1.6 3.2 0.00 0.00 0.00 57 1014.5
20260507044037 7 290 1.6 3.2 0.00 0.00 0.00 54 1014.5
20260507043550 7 331 1.6 3.2 0.00 0.00 0.00 52 1014.6
20260507043028 8 314 1.6 3.2 0.00 0.00 0.00 51 1014.6
20260507042527 8 1 1.6 3.2 0.00 0.00 0.00 50 1014.6
20260507042048 8 314 0.0 3.2 0.00 0.00 0.00 49 1014.6
20260507041524 9 35 0.0 3.2 0.00 0.00 0.00 48 1014.6
20260507041021 9 286 0.0 1.6 0.00 0.00 0.00 48 1014.6
20260507040538 9 161 0.0 1.6 0.00 0.00 0.00 48 1014.7
20260507040037 9 231 0.0 3.2 0.00 0.00 0.00 48 1014.7
20260507035555 9 296 0.0 3.2 0.00 0.00 0.00 47 1014.7
20260507035055 9 213 0.0 3.2 0.00 0.00 0.00 47 1014.9
20260507034531 9 283 1.6 3.2 0.00 0.00 0.00 47 1014.9
20260507034031 9 286 0.0 3.2 0.00 0.00 0.00 47 1014.8
20260507033532 9 241 0.0 3.2 0.00 0.00 0.00 47 1014.9
20260507033052 9 314 0.0 3.2 0.00 0.00 0.00 47 1015.0
20260507032528 9 89 0.0 3.2 0.00 0.00 0.00 46 1015.0
20260507032027 9 178 1.6 3.2 0.00 0.00 0.00 46 1015.0
20260507031520 9 46 0.0 3.2 0.00 0.00 0.00 46 1015.0
20260507031017 9 340 0.0 3.2 0.00 0.00 0.00 45 1015.0
20260507030537 9 89 1.6 3.2 0.00 0.00 0.00 45 1014.9
20260507030033 9 1 0.0 1.6 0.00 0.00 0.00 45 1015.0
20260507025532 9 206 0.0 1.6 0.00 0.00 0.00 44 1015.0
20260507025028 9 117 0.0 1.6 0.00 0.00 0.00 43 1015.0
20260507024527 9 63 0.0 1.6 0.00 0.00 0.00 42 1014.9
20260507024028 9 46 0.0 3.2 0.00 0.00 0.00 42 1015.0
20260507023526 10 28 1.6 3.2 0.00 0.00 0.00 41 1015.0
20260507023025 10 1 0.0 3.2 0.00 0.00 0.00 40 1015.0
20260507022540 10 314 0.0 1.6 0.00 0.00 0.00 40 1014.9
20260507022038 10 269 0.0 1.6 0.00 0.00 0.00 39 1014.9
20260507021534 10 286 1.6 3.2 0.00 0.00 0.00 39 1014.9
20260507021031 11 46 0.0 3.2 0.00 0.00 0.00 37 1014.8
20260507020528 11 331 0.0 1.6 0.00 0.00 0.00 37 1014.7
20260507020025 11 1 1.6 1.6 0.00 0.00 0.00 37 1014.8
20260507015520 12 314 0.0 1.6 0.00 0.00 0.00 36 1014.8
20260507015038 12 46 0.0 1.6 0.00 0.00 0.00 36 1014.7
20260507014536 12 46 0.0 1.6 0.00 0.00 0.00 35 1014.8
20260507014029 12 152 0.0 1.6 0.00 0.00 0.00 34 1014.8
20260507013527 13 89 0.0 3.2 0.00 0.00 0.00 34 1014.8
20260507013026 13 269 0.0 4.8 0.00 0.00 0.00 34 1014.7
20260507012545 13 336 0.0 6.4 0.00 0.00 0.00 32 1014.8
20260507012043 13 286 3.2 6.4 0.00 0.00 0.00 32 1014.8
20260507011522 14 258 3.2 4.8 0.00 0.00 0.00 32 1014.7
20260507011021 14 277 3.2 9.7 0.00 0.00 0.00 31 1014.7
20260507010540 14 274 4.8 9.7 0.00 0.00 0.00 30 1014.9
20260507010037 15 291 4.8 8.0 0.00 0.00 0.00 29 1014.8
20260507005528 15 283 1.6 8.0 0.00 0.00 0.00 28 1014.8
20260507005023 15 279 3.2 11.3 0.00 0.00 0.00 27 1014.9
20260507004520 15 305 8.0 11.3 0.00 0.00 0.00 27 1014.8
20260507004037 15 290 6.4 9.7 0.00 0.00 0.00 28 1014.8
20260507003554 15 223 3.2 8.0 0.00 0.00 0.00 27 1014.9
20260507003030 15 303 3.2 8.0 0.00 0.00 0.00 28 1015.0
20260507002526 15 295 3.2 11.3 0.00 0.00 0.00 28 1015.0
20260507002043 15 285 6.4 12.9 0.00 0.00 0.00 27 1014.9
20260507001541 15 288 8.0 12.9 0.00 0.00 0.00 26 1014.9
20260507001039 15 274 6.4 16.1 0.00 0.00 0.00 26 1015.0
20260507000531 15 276 9.7 16.1 0.00 0.00 0.00 26 1015.0
20260507000028 16 278 4.8 16.1 0.00 0.00 0.00 25 1015.1
20260506235526 16 301 8.0 17.7 0.00 0.00 0.00 25 1015.0
20260506235045 16 278 9.7 17.7 0.00 0.00 0.00 25 1015.2
20260506234521 16 286 11.3 16.1 0.00 0.00 0.00 25 1015.1
20260506234017 16 279 9.7 16.1 0.00 0.00 0.00 26 1015.2
20260506233540 16 290 8.0 20.9 0.00 0.00 0.00 25 1015.2
20260506233059 16 293 11.3 20.9 0.00 0.00 0.00 25 1015.3
20260506232532 16 269 9.7 19.3 0.00 0.00 0.00 25 1015.3
20260506232024 16 279 9.7 17.7 0.00 0.00 0.00 25 1015.4
20260506231540 16 295 8.0 22.5 0.00 0.00 0.00 27 1015.3
20260506231036 15 288 11.3 22.5 0.00 0.00 0.00 26 1015.4
20260506230532 15 241 8.0 17.7 0.00 0.00 0.00 27 1015.4
20260506230028 15 309 8.0 19.3 0.00 0.00 0.00 26 1015.5
20260506225545 16 288 9.7 19.3 0.00 0.00 0.00 26 1015.5
20260506225043 15 262 8.0 16.1 0.00 0.00 0.00 26 1015.5
20260506224538 16 284 9.7 16.1 0.00 0.00 0.00 26 1015.6
20260506224036 15 231 8.0 16.1 0.00 0.00 0.00 27 1015.5
20260506223529 16 276 8.0 16.1 0.00 0.00 0.00 25 1015.8
20260506223031 16 304 8.0 17.7 0.00 0.00 0.00 26 1015.6
20260506222531 15 281 9.7 19.3 0.00 0.00 0.00 26 1015.8
20260506222028 15 283 9.7 19.3 0.00 0.00 0.00 26 1015.8
20260506221529 16 299 12.9 19.3 0.00 0.00 0.00 26 1015.6
20260506221026 15 310 6.4 20.9 0.00 0.00 0.00 27 1015.8
20260506220544 16 334 12.9 20.9 0.00 0.00 0.00 27 1015.9
20260506220043 16 281 11.3 17.7 0.00 0.00 0.00 26 1016.0
20260506215543 16 254 3.2 14.5 0.00 0.00 0.00 26 1016.0
20260506215017 16 46 3.2 14.5 0.00 0.00 0.00 25 1016.0
20260506214525 16 279 4.8 16.1 0.00 0.00 0.00 25 1016.1
20260506214027 16 291 6.4 24.1 0.00 0.00 0.00 25 1016.0
20260506213524 16 286 12.9 24.1 0.00 0.00 0.00 25 1016.2
20260506213016 16 293 12.9 22.5 0.00 0.00 0.00 27 1016.1
20260506212032 16 293 12.9 22.5 0.00 0.00 0.00 26 1016.4
20260506211526 16 288 11.3 25.7 0.00 0.00 0.00 26 1016.3
20260506211040 16 285 12.9 25.7 0.00 0.00 0.00 24 1016.5
20260506210525 16 308 11.3 20.9 0.00 0.00 0.00 27 1016.5
20260506210036 16 285 8.0 25.7 0.00 0.00 0.00 28 1016.7
20260506205518 16 236 11.3 25.7 0.00 0.00 0.00 26 1016.8
20260506205038 16 296 11.3 41.8 0.00 0.00 0.00 27 1016.7
20260506204534 16 297 12.9 41.8 0.00 0.00 0.00 27 1016.7
20260506204032 16 286 8.0 17.7 0.00 0.00 0.00 27 1016.9
20260506203527 16 276 11.3 25.7 0.00 0.00 0.00 26 1017.0
20260506203045 16 295 12.9 25.7 0.00 0.00 0.00 25 1017.0
20260506202517 16 288 9.7 20.9 0.00 0.00 0.00 26 1017.0
20260506202017 16 278 8.0 20.9 0.00 0.00 0.00 25 1017.1
20260506201539 16 281 11.3 22.5 0.00 0.00 0.00 26 1017.2
20260506201015 16 298 11.3 32.2 0.00 0.00 0.00 26 1017.3
20260506200526 16 281 17.7 32.2 0.00 0.00 0.00 26 1017.3
20260506200023 16 279 12.9 29.0 0.00 0.00 0.00 28 1017.4
20260506195519 16 301 6.4 14.5 0.00 0.00 0.00 27 1017.4
20260506195037 16 244 4.8 19.3 0.00 0.00 0.00 27 1017.5
20260506194601 16 288 9.7 20.9 0.00 0.00 0.00 27 1017.6
20260506194013 16 288 12.9 29.0 0.00 0.00 0.00 27 1017.7
20260506193513 16 310 14.5 29.0 0.00 0.00 0.00 28 1017.6
20260506193033 15 302 12.9 27.4 0.00 0.00 0.00 28 1017.7
20260506192532 15 307 16.1 27.4 0.00 0.00 0.00 27 1017.7
20260506192028 15 296 6.4 27.4 0.00 0.00 0.00 26 1017.7
20260506191526 15 271 12.9 33.8 0.00 0.00 0.00 27 1017.8
20260506191043 15 303 20.9 33.8 0.00 0.00 0.00 27 1017.8
20260506190520 15 303 17.7 30.6 0.00 0.00 0.00 27 1017.9
20260506190019 15 13 11.3 25.7 0.00 0.00 0.00 31 1018.0
20260506185517 15 305 12.9 25.7 0.00 0.00 0.00 28 1017.8
20260506185013 15 284 11.3 25.7 0.00 0.00 0.00 29 1018.0
20260506184539 15 314 11.3 20.9 0.00 0.00 0.00 28 1017.9
20260506184026 15 157 8.0 19.3 0.00 0.00 0.00 29 1018.1
20260506183546 14 152 4.8 25.7 0.00 0.00 0.00 29 1018.2
20260506183042 13 255 9.7 35.4 0.00 0.00 0.00 30 1018.3
20260506182528 13 307 19.3 35.4 0.00 0.00 0.00 30 1018.3
20260506182037 13 243 12.9 19.3 0.00 0.00 0.00 32 1018.3
20260506181521 14 293 8.0 24.1 0.00 0.00 0.00 30 1018.4
20260506181040 13 278 12.9 24.1 0.00 0.00 0.00 30 1018.4
20260506180537 13 291 9.7 19.3 0.00 0.00 0.00 30 1018.5
20260506180035 13 283 8.0 17.7 0.00 0.00 0.00 30 1018.6
20260506175530 14 286 11.3 20.9 0.00 0.00 0.00 29 1018.7
20260506175040 14 23 16.1 20.9 0.00 0.00 0.00 32 1018.8
20260506174514 14 312 8.0 35.4 0.00 0.00 0.00 30 1018.7
20260506174040 14 291 20.9 35.4 0.00 0.00 0.00 31 1018.9
20260506173538 13 237 11.3 27.4 0.00 0.00 0.00 32 1018.9
20260506173018 13 301 11.3 19.3 0.00 0.00 0.00 34 1018.8
20260506172520 13 269 9.7 20.9 0.00 0.00 0.00 33 1018.9
20260506172028 13 293 9.7 20.9 0.00 0.00 0.00 34 1018.9
20260506171523 13 246 8.0 20.9 0.00 0.00 0.00 33 1018.9
20260506171039 12 300 14.5 24.1 0.00 0.00 0.00 34 1019.0
20260506170558 12 290 8.0 24.1 0.00 0.00 0.00 33 1018.9
20260506170030 13 343 8.0 24.1 0.00 0.00 0.00 33 1019.1
20260506165523 13 276 11.3 24.1 0.00 0.00 0.00 34 1019.0
20260506165019 13 286 8.0 20.9 0.00 0.00 0.00 34 1019.0
20260506164537 13 283 8.0 20.9 0.00 0.00 0.00 33 1019.1
20260506164032 13 283 14.5 22.5 0.00 0.00 0.00 33 1019.1
20260506163529 13 308 12.9 24.1 0.00 0.00 0.00 32 1019.0
20260506163043 13 30 8.0 24.1 0.00 0.00 0.00 35 1019.2
20260506162534 13 301 12.9 22.5 0.00 0.00 0.00 35 1019.1
20260506162014 12 285 11.3 20.9 0.00 0.00 0.00 33 1019.2
20260506161536 12 324 6.4 22.5 0.00 0.00 0.00 36 1019.2
20260506161052 12 286 9.7 22.5 0.00 0.00 0.00 36 1019.2
20260506160528 12 281 6.4 27.4 0.00 0.00 0.00 36 1019.2
20260506160045 12 291 16.1 27.4 0.00 0.00 0.00 35 1019.2
20260506155540 12 258 12.9 24.1 0.00 0.00 0.00 34 1019.2
20260506155035 12 300 12.9 25.7 0.00 0.00 0.00 37 1019.1
20260506154528 12 303 9.7 20.9 0.00 0.00 0.00 34 1019.1
20260506154026 11 303 9.7 29.0 0.00 0.00 0.00 36 1019.1
20260506153517 11 293 12.9 29.0 0.00 0.00 0.00 36 1019.1
20260506153039 11 300 11.3 29.0 0.00 0.00 0.00 36 1019.1
20260506152530 11 250 12.9 29.0 0.00 0.00 0.00 37 1019.2
20260506152048 11 296 12.9 24.1 0.00 0.00 0.00 36 1019.2
20260506151519 11 327 6.4 29.0 0.00 0.00 0.00 37 1019.2
20260506151042 11 314 11.3 29.0 0.00 0.00 0.00 37 1019.2
20260506150535 11 283 6.4 20.9 0.00 0.00 0.00 38 1019.2
20260506150026 11 302 12.9 20.9 0.00 0.00 0.00 39 1019.3
20260506145525 10 274 6.4 17.7 0.00 0.00 0.00 41 1019.2
20260506145025 10 281 6.4 17.7 0.00 0.00 0.00 41 1019.2
20260506144540 10 286 6.4 11.3 0.00 0.00 0.00 41 1019.2
20260506144036 10 307 8.0 11.3 0.00 0.00 0.00 43 1019.2
20260506143530 10 299 6.4 12.9 0.00 0.00 0.00 42 1019.2
20260506143025 10 286 8.0 12.9 0.00 0.00 0.00 43 1019.3
20260506142541 10 281 4.8 9.7 0.00 0.00 0.00 45 1019.2
20260506142037 9 285 3.2 9.7 0.00 0.00 0.00 45 1019.3
20260506141533 9 241 4.8 9.7 0.00 0.00 0.00 45 1019.2
20260506141027 9 254 3.2 9.7 0.00 0.00 0.00 49 1019.2
20260506140522 8 287 3.2 9.7 0.00 0.00 0.00 49 1019.2
20260506140040 8 259 4.8 8.0 0.00 0.00 0.00 49 1019.2
20260506135549 8 297 3.2 6.4 0.00 0.00 0.00 52 1019.2
20260506135036 8 276 3.2 8.0 0.00 0.00 0.00 53 1019.2
20260506134527 7 283 3.2 8.0 0.00 0.00 0.00 54 1019.2
20260506134020 7 298 3.2 6.4 0.00 0.00 0.00 55 1019.1
20260506133542 7 274 3.2 4.8 0.00 0.00 0.00 56 1018.9
20260506133037 7 296 3.2 6.4 0.00 0.00 0.00 56 1019.0
20260506132525 7 331 1.6 6.4 0.00 0.00 0.00 56 1018.9
20260506132024 7 296 3.2 4.8 0.00 0.00 0.00 56 1018.9
20260506131514 6 296 3.2 4.8 0.00 0.00 0.00 58 1018.9
20260506131016 6 336 3.2 4.8 0.00 0.00 0.00 60 1018.8
20260506130537 6 322 3.2 4.8 0.00 0.00 0.00 61 1018.7
20260506130028 6 347 1.6 6.4 0.00 0.00 0.00 61 1018.6
20260506125522 5 295 3.2 6.4 0.00 0.00 0.00 61 1018.6
20260506125031 5 293 1.6 4.8 0.00 0.00 0.00 63 1018.6
20260506124528 4 324 3.2 6.4 0.00 0.00 0.00 65 1018.5
20260506124025 4 299 3.2 6.4 0.00 0.00 0.00 67 1018.5
20260506123540 3 298 4.8 6.4 0.00 0.00 0.00 69 1018.5
20260506123057 3 319 4.8 6.4 0.00 0.00 0.00 72 1018.5
20260506122550 2 283 3.2 6.4 0.00 0.00 0.00 74 1018.5
20260506122040 2 301 3.2 6.4 0.00 0.00 0.00 76 1018.3
20260506121538 2 286 1.6 3.2 0.00 0.00 0.00 77 1018.3
20260506121055 2 291 1.6 3.2 0.00 0.00 0.00 78 1018.4
20260506120527 1 286 1.6 3.2 0.00 0.00 0.00 79 1018.3
20260506120024 1 269 1.6 3.2 0.00 0.00 0.00 79 1018.2
20260506115542 1 283 1.6 4.8 0.00 0.00 0.00 78 1018.2
20260506115012 1 283 1.6 4.8 0.00 0.00 0.00 78 1018.2
20260506114535 1 314 1.6 4.8 0.00 0.00 0.00 77 1018.1
20260506114023 1 303 3.2 4.8 0.00 0.00 0.00 77 1018.1
20260506113516 1 284 3.2 4.8 0.00 0.00 0.00 76 1017.9
20260506113051 1 277 1.6 3.2 0.00 0.00 0.00 76 1017.8
20260506112524 1 269 1.6 3.2 0.00 0.00 0.00 76 1017.8
20260506112020 1 324 1.6 3.2 0.00 0.00 0.00 76 1017.8
20260506111539 1 300 1.6 3.2 0.00 0.00 0.00 75 1017.7
20260506111058 1 314 1.6 3.2 0.00 0.00 0.00 75 1017.6
20260506110528 1 303 1.6 3.2 0.00 0.00 0.00 74 1017.6
20260506110027 1 269 1.6 3.2 0.00 0.00 0.00 74 1017.7
20260506105520 1 290 3.2 3.2 0.00 0.00 0.00 74 1017.5
20260506105038 1 290 1.6 3.2 0.00 0.00 0.00 74 1017.5
20260506104531 1 331 0.0 0.0 0.00 0.00 0.00 73 1017.4
20260506104030 1 46 0.0 0.0 0.00 0.00 0.00 73 1017.4
20260506103525 1 269 0.0 1.6 0.00 0.00 0.00 73 1017.4
20260506103019 1 269 0.0 1.6 0.00 0.00 0.00 72 1017.5
20260506102515 1 314 0.0 1.6 0.00 0.00 0.00 72 1017.4
20260506102013 2 178 0.0 1.6 0.00 0.00 0.00 72 1017.4
20260506101559 2 331 0.0 1.6 0.00 0.00 0.00 72 1017.4
20260506101031 2 178 0.0 1.6 0.00 0.00 0.00 71 1017.3
20260506100524 1 46 0.0 1.6 0.00 0.00 0.00 72 1017.3
20260506100040 1 314 0.0 1.6 0.00 0.00 0.00 71 1017.3
20260506095539 1 46 0.0 1.6 0.00 0.00 0.00 71 1017.3
20260506095031 1 241 0.0 1.6 0.00 0.00 0.00 70 1017.4
20260506094527 2 303 1.6 3.2 0.00 0.00 0.00 69 1017.3
20260506094024 2 269 0.0 3.2 0.00 0.00 0.00 69 1017.3